When you browse on this site, cookies collect data to enhance your experience and personalize the content and advertising you see.
Visit our Privacy Policy to learn more. By continuing to use the site, you agree to this use of cookies and data.
  • In Netherlands
  • List of Countries
  • For 7 days
  • Water Temperature
  • Weather Map
  • Weather Widgets
  • user-avatar
    Login

    Hourly Weather Charah

    Today, 25 January, Saturday

    Time Temperature Precipitation Wind Pressure Humidity
    00:00 -16°C° 0 mm 2 mps 620 mmHg 59%
    01:00 -16°C° 0 mm 2 mps 620 mmHg 55%
    02:00 -15°C° 0 mm 2 mps 620 mmHg 51%
    03:00 -15°C° 0 mm 2 mps 620 mmHg 47%
    04:00 -15°C° 0 mm 2 mps 620 mmHg 45%
    05:00 -14°C° 0 mm 2 mps 620 mmHg 44%
    06:00 -14°C° 0 mm 2 mps 620 mmHg 42%
    07:00 -13°C° 0 mm 2 mps 620 mmHg 44%
    08:00 -12°C° 0 mm 2 mps 621 mmHg 47%
    09:00 -9°C° 0 mm 2 mps 621 mmHg 50%
    10:00 -8°C° 0 mm 2 mps 621 mmHg 50%
    11:00 -6°C° 0 mm 2 mps 622 mmHg 50%
    12:00 -5°C° 0 mm 2 mps 622 mmHg 50%
    13:00 -2°C° 0 mm 1 mps 622 mmHg 56%
    14:00 -2°C° 0 mm 1 mps 621 mmHg 61%
    15:00 -1°C° 0 mm 1 mps 621 mmHg 67%
    16:00 -2°C° 0 mm 1 mps 620 mmHg 65%
    17:00 -4°C° 0 mm 1 mps 620 mmHg 63%
    18:00 -6°C° 0 mm 1 mps 619 mmHg 61%
    19:00 -7°C° 0 mm 2 mps 619 mmHg 61%
    20:00 -6°C° 0 mm 2 mps 619 mmHg 61%
    21:00 -6°C° 0 mm 2 mps 619 mmHg 61%
    22:00 -6°C° 0 mm 2 mps 619 mmHg 61%
    23:00 -6°C° 0 mm 2 mps 618 mmHg 61%

    Tomorrow, 26 January, Sunday

    Time Temperature Precipitation Wind Pressure Humidity
    00:00 -6°C° 0 mm 2 mps 618 mmHg 61%
    01:00 -6°C° 0 mm 2 mps 618 mmHg 59%
    02:00 -6°C° 0 mm 2 mps 618 mmHg 58%
    03:00 -6°C° 0 mm 2 mps 618 mmHg 57%
    04:00 -6°C° 0 mm 2 mps 618 mmHg 56%
    05:00 -7°C° 0 mm 2 mps 617 mmHg 55%
    06:00 -7°C° 0 mm 2 mps 617 mmHg 55%
    07:00 -5°C° 0 mm 2 mps 618 mmHg 56%
    08:00 -4°C° 0 mm 2 mps 619 mmHg 57%
    09:00 -1°C° 0 mm 1 mps 620 mmHg 58%
    10:00 0°C° 0 mm 1 mps 620 mmHg 59%
    11:00 +1°C° 0 mm 1 mps 620 mmHg 61%
    12:00 +2°C° 0 mm 1 mps 620 mmHg 62%
    13:00 +1°C° 0 mm 1 mps 620 mmHg 67%
    14:00 +1°C° 0 mm 1 mps 620 mmHg 72%
    15:00 0°C° 0 mm 1 mps 620 mmHg 76%
    16:00 -3°C° 0 mm 2 mps 620 mmHg 80%
    17:00 -5°C° 0 mm 2 mps 620 mmHg 83%
    18:00 -7°C° 0 mm 2 mps 619 mmHg 86%
    19:00 -7°C° 0 mm 2 mps 620 mmHg 83%
    20:00 -7°C° 0 mm 2 mps 620 mmHg 80%
    21:00 -7°C° 0 mm 2 mps 620 mmHg 77%
    22:00 -7°C° 0 mm 2 mps 620 mmHg 76%
    23:00 -8°C° 0 mm 2 mps 621 mmHg 75%

    Day after tomorrow, 27 January, Monday

    Time Temperature Precipitation Wind Pressure Humidity
    00:00 -8°C° 0 mm 2 mps 621 mmHg 74%
    01:00 -8°C° 0 mm 2 mps 621 mmHg 73%
    02:00 -8°C° 0 mm 2 mps 621 mmHg 73%
    03:00 -8°C° 0 mm 2 mps 621 mmHg 72%
    04:00 -8°C° 0 mm 2 mps 622 mmHg 72%
    05:00 -7°C° 0 mm 1 mps 622 mmHg 71%
    06:00 -7°C° 0 mm 1 mps 622 mmHg 70%
    07:00 -6°C° 0 mm 1 mps 623 mmHg 69%
    08:00 -6°C° 0 mm 2 mps 623 mmHg 68%
    09:00 -5°C° 0 mm 2 mps 624 mmHg 67%
    10:00 -2°C° 0 mm 1 mps 624 mmHg 65%
    11:00 -1°C° 0 mm 1 mps 624 mmHg 63%
    12:00 +1°C° 0 mm 1 mps 625 mmHg 61%
    13:00 +1°C° 0 mm 1 mps 624 mmHg 65%
    14:00 +1°C° 0 mm 1 mps 624 mmHg 68%
    15:00 +1°C° 0 mm 1 mps 624 mmHg 71%
    16:00 0°C° 0 mm 1 mps 623 mmHg 70%
    17:00 -1°C° 0 mm 1 mps 623 mmHg 68%
    18:00 -5°C° 0 mm 2 mps 622 mmHg 67%
    19:00 -5°C° 0 mm 2 mps 622 mmHg 63%
    20:00 -5°C° 0 mm 2 mps 622 mmHg 60%
    21:00 -5°C° 0 mm 2 mps 622 mmHg 56%
    22:00 -5°C° 0 mm 2 mps 622 mmHg 54%
    23:00 -5°C° 0 mm 2 mps 622 mmHg 52%

    28 January, Tuesday

    Time Temperature Precipitation Wind Pressure Humidity
    00:00 -5°C° 0 mm 2 mps 622 mmHg 50%
    01:00 -5°C° 0 mm 2 mps 621 mmHg 48%
    02:00 -5°C° 0 mm 2 mps 621 mmHg 47%
    03:00 -5°C° 0 mm 2 mps 621 mmHg 46%
    04:00 -6°C° 0 mm 2 mps 620 mmHg 46%
    05:00 -6°C° 0 mm 2 mps 620 mmHg 46%
    06:00 -6°C° 0 mm 2 mps 620 mmHg 46%
    07:00 -5°C° 0 mm 2 mps 620 mmHg 48%
    08:00 -4°C° 0 mm 2 mps 621 mmHg 50%
    09:00 -3°C° 0 mm 2 mps 621 mmHg 52%
    10:00 -2°C° 0 mm 2 mps 621 mmHg 54%
    11:00 +1°C° 0 mm 2 mps 621 mmHg 56%
    12:00 +4°C° 0 mm 1 mps 621 mmHg 58%
    13:00 +3°C° 0 mm 1 mps 621 mmHg 58%
    14:00 +3°C° 0 mm 1 mps 620 mmHg 59%
    15:00 +3°C° 0 mm 1 mps 620 mmHg 59%
    16:00 +1°C° 0 mm 2 mps 619 mmHg 58%
    17:00 -1°C° 0 mm 2 mps 619 mmHg 57%
    18:00 -2°C° 0 mm 3 mps 618 mmHg 56%
    19:00 -4°C° 0 mm 3 mps 618 mmHg 54%
    20:00 -4°C° 0 mm 3 mps 618 mmHg 51%
    21:00 -4°C° 0 mm 3 mps 618 mmHg 49%
    22:00 -4°C° 0 mm 3 mps 617 mmHg 49%
    23:00 -4°C° 0 mm 3 mps 617 mmHg 48%

    29 January, Wednesday

    Time Temperature Precipitation Wind Pressure Humidity
    00:00 -4°C° 0 mm 3 mps 617 mmHg 48%
    01:00 -4°C° 0 mm 3 mps 617 mmHg 48%
    02:00 -4°C° 0 mm 3 mps 616 mmHg 49%
    03:00 -4°C° 0 mm 3 mps 616 mmHg 49%
    04:00 -4°C° 0 mm 3 mps 616 mmHg 49%
    05:00 -4°C° 0 mm 3 mps 616 mmHg 49%
    06:00 -4°C° 0 mm 3 mps 616 mmHg 49%
    07:00 -2°C° 0 mm 3 mps 616 mmHg 51%
    08:00 -2°C° 0 mm 2 mps 617 mmHg 53%
    09:00 -2°C° 0 mm 2 mps 617 mmHg 55%
    10:00 +1°C° 0 mm 2 mps 617 mmHg 56%
    11:00 +3°C° 0 mm 1 mps 618 mmHg 57%
    12:00 +4°C° 0 mm 1 mps 618 mmHg 58%
    13:00 +4°C° 0 mm 1 mps 618 mmHg 61%
    14:00 +3°C° 0 mm 1 mps 617 mmHg 64%
    15:00 +3°C° 0 mm 1 mps 617 mmHg 67%
    16:00 +2°C° 0 mm 1 mps 617 mmHg 67%
    17:00 +1°C° 0 mm 1 mps 617 mmHg 68%
    18:00 -2°C° 0 mm 2 mps 617 mmHg 68%
    19:00 -2°C° 0 mm 2 mps 617 mmHg 67%
    20:00 -3°C° 0 mm 2 mps 617 mmHg 65%
    21:00 -3°C° 0 mm 2 mps 617 mmHg 63%
    22:00 -3°C° 0 mm 2 mps 617 mmHg 63%
    23:00 -4°C° 0 mm 2 mps 617 mmHg 64%

    30 January, Thursday

    Time Temperature Precipitation Wind Pressure Humidity
    00:00 -4°C° 0 mm 2 mps 617 mmHg 64%
    01:00 -4°C° 0 mm 2 mps 617 mmHg 65%
    02:00 -4°C° 0 mm 2 mps 617 mmHg 66%
    03:00 -4°C° 0 mm 2 mps 617 mmHg 68%
    04:00 -5°C° 0 mm 2 mps 617 mmHg 69%
    05:00 -5°C° 0 mm 2 mps 617 mmHg 70%
    06:00 -5°C° 0 mm 2 mps 617 mmHg 71%
    07:00 -4°C° 0 mm 2 mps 617 mmHg 70%
    08:00 -3°C° 0 mm 2 mps 617 mmHg 70%
    09:00 -2°C° 0 mm 2 mps 618 mmHg 69%
    10:00 +1°C° 0 mm 1 mps 618 mmHg 67%
    11:00 +2°C° 0 mm 1 mps 618 mmHg 64%
    12:00 +3°C° 0 mm 1 mps 619 mmHg 62%
    13:00 +3°C° 0 mm 1 mps 618 mmHg 62%
    14:00 +3°C° 0 mm 1 mps 618 mmHg 62%
    15:00 +4°C° 0 mm 1 mps 618 mmHg 63%
    16:00 +2°C° 0 mm 1 mps 618 mmHg 65%
    17:00 -1°C° 0 mm 2 mps 617 mmHg 67%
    18:00 -2°C° 0 mm 2 mps 617 mmHg 69%
    19:00 -3°C° 0 mm 2 mps 617 mmHg 67%
    20:00 -4°C° 0 mm 3 mps 616 mmHg 65%
    21:00 -4°C° 0 mm 3 mps 616 mmHg 63%
    22:00 -4°C° 0 mm 3 mps 616 mmHg 63%
    23:00 -4°C° 0 mm 3 mps 615 mmHg 62%
    Show more